| time (UTC) | temp F | wind direction | speed MPH | gust MPH | rain 1hr in | rain 24hr in | rain mn in | humidity % | barometer mb |
| 20260508152950 | 63 | 343 | 7.0 | 8.0 | 0.00 | 0.00 | 0.00 | ||
| 20260508151952 | 67 | 326 | 5.0 | 5.0 | 0.00 | 0.00 | 0.00 | ||
| 20260508150451 | 68 | 63 | 2.0 | 3.0 | 0.00 | 0.00 | 0.00 | ||
| 20260508145952 | 64 | 13 | 6.0 | 5.0 | 0.00 | 0.00 | 0.00 | ||
| 20260508144954 | 65 | 336 | 8.0 | 5.0 | 0.00 | 0.00 | 0.00 | ||
| 20260508144455 | 67 | 46 | 4.0 | 4.0 | 0.00 | 0.00 | 0.00 | ||
| 20260508143454 | 68 | 25 | 2.0 | 3.0 | 0.00 | 0.00 | 0.00 | ||
| 20260508141955 | 67 | 307 | 2.0 | 3.0 | 0.00 | 0.00 | 0.00 | ||
| 20260508141452 | 67 | 338 | 5.0 | 6.0 | 0.00 | 0.00 | 0.00 | ||
| 20260508140454 | 67 | 305 | 6.0 | 3.0 | 0.00 | 0.00 | 0.00 | ||
| 20260508133457 | 63 | 352 | 6.0 | 7.0 | 0.00 | 0.00 | 0.00 | ||
| 20260508132958 | 67 | 343 | 5.0 | 8.0 | 0.00 | 0.00 | 0.00 | ||
| 20260508131957 | 65 | 346 | 9.0 | 11.0 | 0.00 | 0.00 | 0.00 | ||
| 20260508131457 | 65 | 318 | 10.0 | 7.0 | 0.00 | 0.00 | 0.00 | ||
| 20260508130459 | 66 | 259 | 5.0 | 5.0 | 0.00 | 0.00 | 0.00 | ||
| 20260508125459 | 66 | 304 | 2.0 | 0.0 | 0.00 | 0.00 | 0.00 | ||
| 20260508125000 | 67 | 32 | 3.0 | 3.0 | 0.00 | 0.00 | 0.00 | ||
| 20260508124501 | 64 | 259 | 5.0 | 5.0 | 0.00 | 0.00 | 0.00 | ||
| 20260508124002 | 65 | 287 | 1.0 | 0.0 | 0.00 | 0.00 | 0.00 | ||
| 20260508123500 | 67 | 218 | 3.0 | 3.0 | 0.00 | 0.00 | 0.00 | ||
| 20260508121002 | 61 | 274 | 4.0 | 2.0 | 0.00 | 0.00 | 0.00 | ||
| 20260508115506 | 63 | 307 | 4.0 | 7.0 | 0.00 | 0.00 | 0.00 | ||
| 20260508114007 | 68 | 352 | 3.0 | 5.0 | 0.00 | 0.00 | 0.00 | ||
| 20260508112511 | 68 | 77 | 6.0 | 4.0 | 0.00 | 0.00 | 0.00 | ||
| 20260508112010 | 67 | 55 | 2.0 | 9.0 | 0.00 | 0.00 | 0.00 | ||
| 20260508111012 | 66 | 353 | 4.0 | 2.0 | 0.00 | 0.00 | 0.00 | ||
| 20260508110513 | 65 | 72 | 3.0 | 2.0 | 0.00 | 0.00 | 0.00 | ||
| 20260508110015 | 63 | 68 | 6.0 | 6.0 | 0.00 | 0.00 | 0.00 | ||
| 20260508104015 | 63 | 14 | 3.0 | 8.0 | 0.00 | 0.00 | 0.00 | ||
| 20260508103516 | 61 | 277 | 3.0 | 3.0 | 0.00 | 0.00 | 0.00 | ||
| 20260508102516 | 61 | 41 | 3.0 | 2.0 | 0.00 | 0.00 | 0.00 | ||
| 20260508101519 | 62 | 63 | 5.0 | 6.0 | 0.00 | 0.00 | 0.00 | ||
| 20260508101020 | 65 | 24 | 5.0 | 6.0 | 0.00 | 0.00 | 0.00 | ||
| 20260508100020 | 64 | 8 | 3.0 | 1.0 | 0.00 | 0.00 | 0.00 | ||
| 20260508095522 | 60 | 233 | 2.0 | 2.0 | 0.00 | 0.00 | 0.00 | ||
| 20260508095023 | 62 | 323 | 2.0 | 1.0 | 0.00 | 0.00 | 0.00 | ||
| 20260508093025 | 57 | 308 | 2.0 | 1.0 | 0.00 | 0.00 | 0.00 | ||
| 20260508090030 | 56 | 353 | 4.0 | 5.0 | 0.00 | 0.00 | 0.00 | ||
| 20260508085531 | 54 | 329 | 6.0 | 7.0 | 0.00 | 0.00 | 0.00 | ||
| 20260508085029 | 58 | 343 | 4.0 | 9.0 | 0.00 | 0.00 | 0.00 | ||
| 20260508084530 | 60 | 62 | 8.0 | 8.0 | 0.00 | 0.00 | 0.00 | ||
| 20260508084031 | 56 | 4 | 5.0 | 3.0 | 0.00 | 0.00 | 0.00 | ||
| 20260508083533 | 57 | 30 | 3.0 | 5.0 | 0.00 | 0.00 | 0.00 | ||
| 20260508083034 | 56 | 4 | 4.0 | 4.0 | 0.00 | 0.00 | 0.00 | ||
| 20260508081535 | 53 | 347 | 4.0 | 5.0 | 0.00 | 0.00 | 0.00 | ||
| 20260508080538 | 56 | 301 | 0.0 | 0.0 | 0.00 | 0.00 | 0.00 | ||
| 20260508074541 | 52 | 111 | 1.0 | 2.0 | 0.00 | 0.00 | 0.00 | ||
| 20260508073540 | 52 | 172 | 0.0 | 0.0 | 0.00 | 0.00 | 0.00 | ||
| 20260508071545 | 50 | 301 | 1.0 | 0.0 | 0.00 | 0.00 | 0.00 | ||
| 20260508070046 | 49 | 352 | 4.0 | 4.0 | 0.00 | 0.00 | 0.00 | ||
| 20260508065548 | 51 | 45 | 3.0 | 2.0 | 0.00 | 0.00 | 0.00 | ||
| 20260508065049 | 51 | 17 | 3.0 | 3.0 | 0.00 | 0.00 | 0.00 | ||
| 20260508064547 | 52 | 17 | 3.0 | 3.0 | 0.00 | 0.00 | 0.00 | ||
| 20260508064048 | 51 | 77 | 3.0 | 3.0 | 0.00 | 0.00 | 0.00 | ||
| 20260508062048 | 50 | 79 | 5.0 | 6.0 | 0.00 | 0.00 | 0.00 | ||
| 20260508061549 | 52 | 60 | 4.0 | 5.0 | 0.00 | 0.00 | 0.00 | ||
| 20260508060053 | 49 | 48 | 3.0 | 4.0 | 0.00 | 0.00 | 0.00 | ||
| 20260508055551 | 49 | 31 | 4.0 | 5.0 | 0.00 | 0.00 | 0.00 | ||
| 20260508054055 | 47 | 349 | 6.0 | 7.0 | 0.00 | 0.00 | 0.00 | ||
| 20260508053557 | 47 | 6 | 3.0 | 2.0 | 0.00 | 0.00 | 0.00 | ||
| 20260508053054 | 47 | 6 | 3.0 | 2.0 | 0.00 | 0.00 | 0.00 | ||
| 20260508051557 | 47 | 24 | 0.0 | 0.0 | 0.00 | 0.00 | 0.00 | ||
| 20260508051059 | 48 | 24 | 0.0 | 0.0 | 0.00 | 0.00 | 0.00 | ||
| 20260508050556 | 48 | 24 | 0.0 | 0.0 | 0.00 | 0.00 | 0.00 | ||
| 20260508050057 | 47 | 79 | 0.0 | 1.0 | 0.00 | 0.00 | 0.00 | ||
| 20260508045559 | 47 | 41 | 5.0 | 4.0 | 0.00 | 0.00 | 0.00 | ||
| 20260508044600 | 46 | 1 | 0.0 | 0.0 | 0.00 | 0.00 | 0.00 | ||
| 20260508044058 | 46 | 353 | 0.0 | 0.0 | 0.00 | 0.00 | 0.00 | ||
| 20260508043559 | 46 | 4 | 4.0 | 3.0 | 0.00 | 0.00 | 0.00 | ||
| 20260508043101 | 46 | 330 | 2.0 | 3.0 | 0.00 | 0.00 | 0.00 | ||
| 20260508042602 | 45 | 323 | 5.0 | 4.0 | 0.00 | 0.00 | 0.00 | ||
| 20260508041601 | 46 | 315 | 1.0 | 3.0 | 0.00 | 0.00 | 0.00 | ||
| 20260508041102 | 45 | 309 | 3.0 | 2.0 | 0.00 | 0.00 | 0.00 | ||
| 20260508040105 | 45 | 338 | 4.0 | 3.0 | 0.00 | 0.00 | 0.00 | ||
| 20260508034604 | 45 | 343 | 5.0 | 6.0 | 0.00 | 0.00 | 0.00 | ||
| 20260508034105 | 45 | 339 | 6.0 | 7.0 | 0.00 | 0.00 | 0.00 | ||
| 20260508030108 | 45 | 323 | 4.0 | 4.0 | 0.00 | 0.00 | 0.00 | ||
| 20260508024114 | 44 | 330 | 3.0 | 3.0 | 0.00 | 0.00 | 0.00 | ||
| 20260508023613 | 44 | 297 | 0.0 | 1.0 | 0.00 | 0.00 | 0.00 | ||
| 20260508022117 | 43 | 330 | 1.0 | 2.0 | 0.00 | 0.00 | 0.00 | ||
| 20260508021618 | 43 | 115 | 0.0 | 0.0 | 0.00 | 0.00 | 0.00 | ||
| 20260508021116 | 44 | 115 | 0.0 | 0.0 | 0.00 | 0.00 | 0.00 | ||
| 20260508020617 | 43 | 115 | 0.0 | 0.0 | 0.00 | 0.00 | 0.00 | ||
| 20260508014121 | 43 | 115 | 0.0 | 0.0 | 0.00 | 0.00 | 0.00 | ||
| 20260508013124 | 43 | 115 | 0.0 | 0.0 | 0.00 | 0.00 | 0.00 | ||
| 20260508012626 | 44 | 115 | 0.0 | 0.0 | 0.00 | 0.00 | 0.00 | ||
| 20260508012123 | 44 | 115 | 0.0 | 0.0 | 0.00 | 0.00 | 0.00 | ||
| 20260508011625 | 45 | 115 | 0.0 | 0.0 | 0.00 | 0.00 | 0.00 | ||
| 20260508011126 | 45 | 115 | 0.0 | 0.0 | 0.00 | 0.00 | 0.00 | ||
| 20260508010627 | 46 | 115 | 0.0 | 0.0 | 0.00 | 0.00 | 0.00 | ||
| 20260508010129 | 46 | 115 | 0.0 | 0.0 | 0.00 | 0.00 | 0.00 | ||
| 20260508005626 | 46 | 115 | 0.0 | 0.0 | 0.00 | 0.00 | 0.00 | ||
| 20260508005127 | 47 | 115 | 0.0 | 0.0 | 0.00 | 0.00 | 0.00 | ||
| 20260508002631 | 46 | 218 | 3.0 | 2.0 | 0.00 | 0.00 | 0.00 | ||
| 20260508002133 | 46 | 238 | 3.0 | 3.0 | 0.00 | 0.00 | 0.00 | ||
| 20260508001634 | 46 | 242 | 2.0 | 1.0 | 0.00 | 0.00 | 0.00 | ||
| 20260508000135 | 46 | 224 | 2.0 | 2.0 | 0.00 | 0.00 | 0.00 | ||
| 20260507234639 | 46 | 243 | 2.0 | 1.0 | 0.00 | 0.00 | 0.00 | ||
| 20260507233640 | 46 | 186 | 3.0 | 3.0 | 0.00 | 0.00 | 0.00 | ||
| 20260507233141 | 47 | 190 | 1.0 | 3.0 | 0.00 | 0.00 | 0.00 | ||
| 20260507232143 | 48 | 51 | 0.0 | 0.0 | 0.00 | 0.00 | 0.00 | ||
| 20260507230642 | 47 | 75 | 0.0 | 0.0 | 0.00 | 0.00 | 0.00 | ||
| 20260507225142 | 46 | 229 | 1.0 | 1.0 | 0.00 | 0.00 | 0.00 | ||
| 20260507224145 | 45 | 269 | 2.0 | 2.0 | 0.00 | 0.00 | 0.00 | ||
| 20260507223646 | 45 | 65 | 0.0 | 0.0 | 0.00 | 0.00 | 0.00 | ||
| 20260507222645 | 46 | 65 | 0.0 | 0.0 | 0.00 | 0.00 | 0.00 | ||
| 20260507222146 | 47 | 65 | 0.0 | 0.0 | 0.00 | 0.00 | 0.00 | ||
| 20260507221648 | 47 | 152 | 1.0 | 1.0 | 0.00 | 0.00 | 0.00 | ||
| 20260507221149 | 46 | 160 | 3.0 | 2.0 | 0.00 | 0.00 | 0.00 | ||
| 20260507220149 | 46 | 217 | 2.0 | 2.0 | 0.00 | 0.00 | 0.00 | ||
| 20260507215650 | 45 | 198 | 3.0 | 3.0 | 0.00 | 0.00 | 0.00 | ||
| 20260507214653 | 44 | 229 | 2.0 | 3.0 | 0.00 | 0.00 | 0.00 | ||
| 20260507214154 | 44 | 232 | 1.0 | 2.0 | 0.00 | 0.00 | 0.00 | ||
| 20260507213652 | 45 | 172 | 0.0 | 1.0 | 0.00 | 0.00 | 0.00 | ||
| 20260507212653 | 45 | 155 | 2.0 | 2.0 | 0.00 | 0.00 | 0.00 | ||
| 20260507211655 | 45 | 277 | 0.0 | 0.0 | 0.00 | 0.00 | 0.00 | ||
| 20260507211154 | 45 | 277 | 0.0 | 0.0 | 0.00 | 0.00 | 0.00 | ||
| 20260507210656 | 45 | 277 | 0.0 | 0.0 | 0.00 | 0.00 | 0.00 | ||
| 20260507210157 | 45 | 277 | 0.0 | 0.0 | 0.00 | 0.00 | 0.00 | ||
| 20260507205658 | 45 | 269 | 2.0 | 2.0 | 0.00 | 0.00 | 0.00 | ||
| 20260507205200 | 46 | 277 | 2.0 | 2.0 | 0.00 | 0.00 | 0.00 | ||
| 20260507204658 | 46 | 294 | 2.0 | 1.0 | 0.00 | 0.00 | 0.00 | ||
| 20260507204200 | 47 | 280 | 2.0 | 2.0 | 0.00 | 0.00 | 0.00 | ||
| 20260507203202 | 47 | 231 | 3.0 | 4.0 | 0.00 | 0.00 | 0.00 | ||
| 20260507201704 | 49 | 211 | 0.0 | 0.0 | 0.00 | 0.00 | 0.00 | ||
| 20260507201205 | 48 | 211 | 0.0 | 0.0 | 0.00 | 0.00 | 0.00 | ||
| 20260507195706 | 49 | 193 | 1.0 | 1.0 | 0.00 | 0.00 | 0.00 | ||
| 20260507195208 | 49 | 215 | 2.0 | 1.0 | 0.00 | 0.00 | 0.00 | ||
| 20260507194709 | 49 | 183 | 0.0 | 0.0 | 0.00 | 0.00 | 0.00 | ||
| 20260507194211 | 49 | 245 | 0.0 | 0.0 | 0.00 | 0.00 | 0.00 | ||
| 20260507193712 | 49 | 245 | 0.0 | 0.0 | 0.00 | 0.00 | 0.00 | ||
| 20260507193211 | 50 | 245 | 0.0 | 0.0 | 0.00 | 0.00 | 0.00 | ||
| 20260507192712 | 49 | 245 | 0.0 | 0.0 | 0.00 | 0.00 | 0.00 | ||
| 20260507191216 | 49 | 231 | 1.0 | 1.0 | 0.00 | 0.00 | 0.00 | ||
| 20260507190713 | 49 | 290 | 2.0 | 1.0 | 0.00 | 0.00 | 0.00 | ||
| 20260507190215 | 49 | 190 | 0.0 | 0.0 | 0.00 | 0.00 | 0.00 | ||
| 20260507185716 | 50 | 190 | 0.0 | 0.0 | 0.00 | 0.00 | 0.00 | ||
| 20260507184217 | 49 | 239 | 2.0 | 1.0 | 0.00 | 0.00 | 0.00 | ||
| 20260507183220 | 50 | 245 | 2.0 | 2.0 | 0.00 | 0.00 | 0.00 | ||
| 20260507182721 | 49 | 239 | 1.0 | 1.0 | 0.00 | 0.00 | 0.00 | ||
| 20260507180724 | 50 | 273 | 3.0 | 3.0 | 0.00 | 0.00 | 0.00 | ||
| 20260507174726 | 50 | 318 | 3.0 | 3.0 | 0.00 | 0.00 | 0.00 | ||
| 20260507174228 | 50 | 309 | 3.0 | 3.0 | 0.00 | 0.00 | 0.00 | ||
| 20260507173729 | 50 | 291 | 3.0 | 2.0 | 0.00 | 0.00 | 0.00 | ||
| 20260507173230 | 50 | 266 | 5.0 | 3.0 | 0.00 | 0.00 | 0.00 | ||
| 20260507171732 | 50 | 225 | 3.0 | 1.0 | 0.00 | 0.00 | 0.00 | ||
| 20260507171233 | 50 | 236 | 4.0 | 4.0 | 0.00 | 0.00 | 0.00 | ||
| 20260507164734 | 51 | 238 | 3.0 | 3.0 | 0.00 | 0.00 | 0.00 | ||
| 20260507164235 | 51 | 242 | 5.0 | 6.0 | 0.00 | 0.00 | 0.00 | ||
| 20260507162238 | 52 | 225 | 3.0 | 4.0 | 0.00 | 0.00 | 0.00 | ||
| 20260507161236 | 52 | 249 | 5.0 | 5.0 | 0.00 | 0.00 | 0.00 | ||
| 20260507160738 | 53 | 271 | 2.0 | 4.0 | 0.00 | 0.00 | 0.00 | ||
| 20260507155242 | 53 | 278 | 3.0 | 4.0 | 0.00 | 0.00 | 0.00 | ||
| 20260507154740 | 52 | 249 | 3.0 | 3.0 | 0.00 | 0.00 | 0.00 | ||
| 20260507154242 | 51 | 262 | 4.0 | 6.0 | 0.00 | 0.00 | 0.00 |